Location: Sperry Observatory
(40.6664°N, 74.3236°W)
Time: 05:37:20
(UTC-04:00)

FO-29 - Visible Passes

Search period start: 23 April 2018 00:00
Search period end: 03 May 2018 00:00
Orbit: 801 x 1321 km, 98.5° (Epoch: 22 April)

Date Brightness Start Highest point End Pass type
(mag) Time Alt. Az. Time Alt. Az. Time Alt. Az.
23 Apr 10.9 21:14:51 10° N 21:21:53 47° WNW 21:28:12 10° SW visible
24 Apr 9.8 20:19:43 10° NNE 20:27:07 75° ESE 20:33:37 10° S visible
24 Apr 12.2 22:05:55 10° NNW 22:11:13 22° WNW 22:16:09 10° WSW visible
25 Apr 10.8 21:09:58 10° N 21:16:59 50° WNW 21:23:14 10° SW visible
26 Apr 9.8 20:14:53 10° NNE 20:22:09 71° E 20:28:32 10° S visible
26 Apr 12.1 22:00:59 10° N 22:06:21 23° WNW 22:11:19 10° WSW visible
27 Apr 10.7 21:05:06 10° N 21:12:04 52° WNW 21:18:15 10° SW visible
28 Apr 13.0 05:33:30 10° E 05:37:46 16° NE 05:42:05 10° NNE visible
28 Apr 9.8 20:10:04 10° NNE 20:17:11 66° E 20:23:24 10° S visible
28 Apr 12.1 21:56:03 10° N 22:01:28 24° WNW 22:06:27 10° WSW visible
29 Apr 10.5 21:00:13 10° N 21:07:08 55° WNW 21:13:14 10° SW visible
29 Apr 12.9 22:49:51 10° NW 22:50:24 10° NW 22:50:57 10° NW visible
30 Apr 13.0 05:28:57 10° E 05:32:58 15° NE 05:37:00 10° NNE visible
30 Apr 12.0 21:51:07 10° N 21:56:35 25° WNW 22:01:34 10° WSW visible
01 May 10.4 20:55:21 10° N 21:02:12 59° WNW 21:08:13 10° SSW visible
01 May 12.8 22:44:18 10° NW 22:45:33 11° NW 22:46:47 10° WNW visible
02 May 13.1 05:24:27 10° E 05:28:10 14° NE 05:31:52 10° NNE visible
02 May 11.9 21:46:11 10° N 21:51:40 26° WNW 21:56:40 10° WSW visible
